Regional Weather Roundup
Issued by NWS

Home | Current Version | Previous Version | Text Only | Print | Product List | Glossary On
Versions: 1 2 3 4 5 6 7 8 9 10 11 12 13 14 15 16 17 18 19 20 21 22 23 24 25 26 27
000
ASUS46 KPQR 250910
RWROR

OREGON REGIONAL WEATHER ROUNDUP
NATIONAL WEATHER SERVICE PORTLAND OR
100 AM PST SAT FEB 25 2017

NOTE: "FAIR" INDICATES FEW OR NO CLOUDS BELOW 12,000 FEET WITH
NO SIGNIFICANT WEATHER AND/OR OBSTRUCTIONS TO VISIBILITY.

ORZ001>013-251000-
NORTHWEST OREGON


CITY           SKY/WX    TMP DP  RH WIND       PRES   REMARKS
ASTORIA        CLEAR     32  29  88 E3        30.22S
NEWPORT        CLOUDY    36  36 100 E3        30.23R
PORTLAND       CLOUDY    36  33  89 S5        30.25S WCI  32
VANCOUVER WA   CLOUDY    37  37 100 CALM      30.24S
SCAPPOOSE      CLOUDY    34  34 100 CALM      30.24S
HILLSBORO      CLOUDY    37  36  96 W5        30.23S WCI  33
AURORA         CLOUDY    35  33  92 CALM      30.24S
MCMINNVILLE    LGT RAIN  38  36  92 CALM      30.24R
SALEM          CLOUDY    36  32  85 N5        30.22S WCI  32
CORVALLIS        N/A     36  34  93 NE5       30.21R WCI  32
EUGENE         PTCLDY    34  33  96 CALM      30.19S
$$

ORZ021-028-251000-
SOUTHWEST OREGON


CITY           SKY/WX    TMP DP  RH WIND       PRES   REMARKS
NORTH BEND     MOCLDY    36  34  93 SE8       30.20S WCI  29
BROOKINGS      LGT RAIN  36  35  96 VRB6      30.17F WCI  31
ROSEBURG       FOG       35  35 100 N3        30.19R VSB 1/4
SEXTON SUMMIT  SNOW      27  25  92 SE7       30.04S VSB 1/2 WCI  19
MEDFORD        CLOUDY    35  34  96 CALM      30.16S
$$

ORZ014>016-041-251000-
COLUMBIA GORGE


CITY           SKY/WX    TMP DP  RH WIND       PRES   REMARKS
TROUTDALE      CLOUDY    36  33  89 NE5       30.24F WCI  32
THE DALLES     CLEAR     29  25  85 SE6       30.26S WCI  23
$$

ORZ029>031-041-044-049-050-061>064-502-503-505>511-251000-
EASTERN OREGON


CITY           SKY/WX    TMP DP  RH WIND       PRES   REMARKS
REDMOND        CLEAR     22  17  81 E5        30.10S WCI  16
BEND           CLEAR     23  23 100 CALM      30.10S
PRINEVILLE     CLEAR     23  23 100 CALM      30.11R
KLAMATH FALLS  CLOUDY    28  26  92 E6        30.06S WCI  22
LAKEVIEW       CLOUDY    23  19  86 N3        30.07S
HERMISTON      CLEAR     29  25  85 SE5       30.22S WCI  24
PENDLETON      CLOUDY    29  23  78 E7        30.17S WCI  22
JOHN DAY       CLOUDY    26  17  68 CALM      30.11S
MEACHAM        PTCLDY     7   0  73 CALM      30.08F
LA GRANDE      PTCLDY    21  18  86 CALM      30.14S
BAKER CITY     CLEAR     19  15  84 SW3       30.13S
BURNS          CLEAR      7   3  84 CALM      30.10S
ROME             N/A      9   3  77 SE12      30.08F WCI  -6
ONTARIO        CLEAR     18  13  80 W6        30.21R WCI  10
$$




USA.gov is the U.S. government's official web portal to all federal, state and local government web resources and services.